Flag for Canada Weather past 2 weeks in Red Deer, Alberta, Canada

Now
55 °F

Passing clouds.


Feels Like: 55 °F
Forecast: 52 / 84 °F
Wind: 2 mph from South

Location: Red Deer

Current Time: Jul 29, 2014 at 5:39:55 AM

Latest Report: Jul 29, 2014 at 5:00 AM


Visibility: 15 mi

Pressure: 30.14 "Hg

Humidity: 94%

Dew point: 54 °F

Location of Red DeerLocation

Historic Weather in Red Deer — Graph

°F

Red Deer temperature yesterday

Maximum temperature yesterday: 79 °F (at 4:00 PM)
Minimum temperature yesterday: 50 °F (at 5:00 AM)
Average temperature yesterday: 65 °F

Past Weeks' High & Low Weather Summary

 TemperatureHumidityPressure
High82 °F (Jul 16, 4:00 PM)100% (Jul 16, 6:00 AM)30.29 "Hg (Jul 16, 6:00 AM)
Low46 °F (Jul 27, 3:00 AM)29% (Jul 24, 3:00 PM)29.55 "Hg (Jul 19, 6:00 AM)
Average62 °F75%29.95 "Hg
* Reported Jul 14 4:00 AM — Jul 29 4:00 AM, Red Deer, Weather by CustomWeather, © 2014

Note: Actual official high and low records may vary slightly from our data, if they occured in-between our weather recording intervals... More about our weather records

Advertising

Red Deer weather history for previous 24 hours

 ConditionsComfort  
Time TempWeatherWind HumidityBarometerVisibility
4:00 AM
Jul 29
57 °FClear.5 mph88%30.14 "Hg15 mi
3:00 AM59 °FClear.5 mph88%30.14 "Hg15 mi
2:00 AM59 °FClear.3 mph88%30.15 "Hg15 mi
1:00 AM61 °FPassing clouds.2 mph88%30.15 "Hg15 mi
12:00 AM61 °FPassing clouds.2 mph94%30.15 "Hg15 mi
11:00 PM
Jul 28
64 °FPassing clouds.No wind94%30.15 "Hg15 mi
10:00 PM66 °FPassing clouds.3 mph88%30.16 "Hg15 mi
9:00 PM70 °FPassing clouds.3 mph78%30.16 "Hg15 mi
8:00 PM75 °FSunny.5 mph69%30.15 "Hg15 mi
7:00 PM77 °FPassing clouds.7 mph61%30.16 "Hg15 mi
6:00 PM77 °FPassing clouds.9 mph61%30.16 "Hg15 mi
5:00 PM79 °FPassing clouds.9 mph54%30.17 "Hg15 mi
4:00 PM79 °FPassing clouds.8 mph54%30.18 "Hg15 mi
2:00 PM77 °FPassing clouds.8 mph54%30.21 "Hg15 mi
1:00 PM77 °FPassing clouds.6 mph54%30.22 "Hg15 mi
12:00 PM75 °FPassing clouds.6 mph57%30.22 "Hg15 mi
11:00 AM70 °FPassing clouds.2 mph69%30.23 "Hg15 mi
10:00 AM64 °FPassing clouds.5 mph73%30.25 "Hg15 mi
9:00 AM61 °FPassing clouds.3 mph83%30.25 "Hg15 mi
8:00 AM57 °FPassing clouds.3 mph82%30.25 "Hg15 mi
7:00 AM54 °FPassing clouds.2 mph88%30.24 "Hg15 mi
6:00 AM52 °FPassing clouds.2 mph88%30.23 "Hg15 mi
5:00 AM50 °FPassing clouds.3 mph94%30.23 "Hg15 mi
Weather by CustomWeather, © 2014

See weather overviewHow to use our weather pages